Regional Weather Roundup
Issued by NWS

Home | Current Version | Previous Version | Graphics & Text | Print | Product List | Glossary On
Versions: 1 2 3 4 5 6 7 8 9 10 11 12 13 14 15 16 17 18 19 20 21 22 23 24 25 26 27 28 29 30 31 32 33 34 35 36 37 38 39 40 41 42 43 44 45 46 47 48 49 50
000
ASUS43 KMKX 292010
RWRWI

WISCONSIN REGIONAL WEATHER ROUNDUP
NATIONAL WEATHER SERVICE MILWAUKEE/SULLIVAN WI
200 PM CST THU JAN 29 2015

NOTE: "FAIR" INDICATES FEW OR NO CLOUDS BELOW 12,000 FEET WITH NO
SIGNIFICANT WEATHER AND/OR OBSTRUCTIONS TO VISIBILITY.

WIZ001-002-006>008-014>016-023>028-292100-
NORTHWEST WISCONSIN

CITY           SKY/WX    TMP DP  RH WIND       PRES   REMARKS
SUPERIOR ARPT  MOSUNNY   24  13  63 N16G22    30.25R WCI  10
ASHLAND        CLOUDY    27  15  61 NW18G29   30.17R WCI  14
HAYWARD        CLOUDY    26  16  65 NW7G18    30.15R WCI  18
SIREN          PTSUNNY   26  16  64 NW16G28   30.22R WCI  14
CUMBERLAND     CLOUDY    27  18  69 NW23      30.16R WCI  12
RICE LAKE      CLOUDY    28  20  70 NW16G25   30.18R WCI  17
CHETEK         CLOUDY    29  21  71 W12G21    30.16R WCI  19
LADYSMITH      CLOUDY    30  21  69 NW23G29   30.12R WCI  17
EAU CLAIRE     CLOUDY    32  20  61 NW15      30.14R WCI  22
MENOMONIE      CLOUDY    32  21  65 NW25G32   30.17R WCI  18
NEW RICHMOND   CLOUDY    28  18  68 NW17G31   30.23R WCI  15
OSCEOLA        CLOUDY    28  18  66 NW21G29   30.27R WCI  15
$$

WIZ003>005-009-010-017-018-292100-
NORTH CENTRAL WISCONSIN

CITY           SKY/WX    TMP DP  RH WIND       PRES   REMARKS
MANITOWISH WTR CLOUDY    23  19  83 N15G23    30.03R WCI  10
ARBOR VITAE    CLOUDY    25  19  77 N18G35    30.02R HAZE    WCI  11
WOODRUFF       CLOUDY    25  19  77 N18G35    30.02R HAZE    WCI  11
RHINELANDER    CLOUDY    26  18  71 NW15G30   29.99R WCI  14
EAGLE RIVER    CLOUDY    24  17  74 NW29G36   29.99R HAZE    WCI   7
LAND O LAKES   CLOUDY    23  19  85 NW18G28   30.00R FOG     WCI   9
PHILLIPS       CLOUDY    27  17  66 NW14G21   30.05R WCI  16
TOMAHAWK       CLOUDY    29  19  65 NW16      30.02R WCI  17
MEDFORD        CLOUDY    31  20  63 NW22      30.02R WCI  18
MERRILL        PTSUNNY   32  18  58 N16G26    30.00R WCI  21
$$

WIZ029-030-035-036-043>047-292100-
CENTRAL WISCONSIN

CITY           SKY/WX    TMP DP  RH WIND       PRES   REMARKS
WAUSAU         CLOUDY    33  18  53 NW17G30   29.99R WCI  22
MOSINEE        CLOUDY    32  21  64 NW18G26   30.01R WCI  20
MARSHFIELD     CLOUDY    33  21  61 NW24G36   30.03R WCI  20
STEVENS POINT  CLOUDY    31  20  63 NW14G22   30.01R WCI  21
WAUPACA        CLOUDY    36  24  61 NW18      29.98S WCI  25
WAUTOMA        CLOUDY    35  24  64 NW17G25   30.01R WCI  25
WISC RAPIDS    CLOUDY    33  19  56 NW17G33   30.04R WCI  22
CAMP DOUGLAS   CLOUDY    34  28  80 NW18G24   30.06R WCI  23
$$

WIZ011>013-019>022-031-037>040-048>050-292100-
NORTHEAST WISCONSIN

CITY           SKY/WX    TMP DP  RH WIND       PRES   REMARKS
ANTIGO         CLOUDY    28  20  71 N18G29    29.96R WCI  15
SHAWANO        CLOUDY    36  21  55 NW17G24   29.96R WCI  26
OCONTO         CLOUDY    34  25  69 MISG      29.93R
STURGEON BAY   CLOUDY    32  25  74 N15       29.92R WCI  22
GREEN BAY      CLOUDY    34  25  69 NW13      29.94R WCI  25
MANITOWOC      CLOUDY    34  26  72 NW17      29.93R WCI  23
APPLETON       CLOUDY    34  23  64 NW16G25   29.95R WCI  23
CLINTONVILLE   CLOUDY    34  21  60 N14G24    29.96R WCI  24
OSHKOSH        CLOUDY    34  24  67 NW20G25   29.96R WCI  23
$$

WIZ032>034-041-042-053>061-292100-
SOUTHWEST WISCONSIN

CITY           SKY/WX    TMP DP  RH WIND       PRES   REMARKS
LA CROSSE      CLOUDY    36  25  64 NW17      30.12R WCI  26
SPARTA         CLOUDY    34  23  64 NW15G26   30.10R WCI  24
VIROQUA        CLOUDY    32  26  77 NW23G29   30.07S WCI  19
BOSCOBEL       CLOUDY    37  25  61 NW15G21   30.10S WCI  28
PRAIRIE DU CHI CLOUDY    35  26  68 W21       30.12S WCI  24
PLATTEVILLE    CLOUDY    35  28  75 W15G28    30.07R WCI  25
$$

WIZ056-057-062-063-064-067-068-292100-
SOUTH CENTRAL WISCONSIN

CITY           SKY/WX    TMP DP  RH WIND       PRES   REMARKS
REEDSBURG      CLOUDY    33  26  74 NW12G23   30.05R WCI  24
BARABOO/DELLS  CLOUDY    33  24  69 NW14G24   30.03R WCI  23
LONE ROCK      CLOUDY    36  24  62 NW15G25   30.07R WCI  27
MINERAL POINT  CLOUDY    36  27  69 NW20G28   30.05R WCI  25
MADISON        CLOUDY    34  25  69 NW14G24   30.01R WCI  25
MIDDLETON      CLOUDY    36  25  66 NW23      30.02S WCI  24
WATERTOWN      CLOUDY    33  26  76 NW18      29.98R WCI  22
MONROE         CLOUDY    34  28  80 NW18G29   30.02R WCI  23
JANESVILLE     CLOUDY    36  27  69 NW20G28   30.01R WCI  25
$$

WIZ051-052-058>065-066-070>072-292100-
SOUTHEAST WISCONSIN

CITY           SKY/WX    TMP DP  RH WIND       PRES   REMARKS
MILWAUKEE      CLOUDY    34  24  67 NW14G22   29.96R WCI  25
WAUKESHA       CLOUDY    32  25  74 NW18G25   29.96R WCI  20
MILWAUKEE/TIMM CLOUDY    34  25  69 NW14G25   29.96R WCI  24
RACINE         CLOUDY    34  25  69 N16G25    29.97R WCI  24
BURLINGTON     CLOUDY    32  25  76 NW16G23   29.98R WCI  21
KENOSHA        CLOUDY    34  26  72 NW17      29.97R WCI  23
FOND DU LAC    CLOUDY    34  24  67 NW15G24   29.97R WCI  24
SHEBOYGAN      CLOUDY    34  24  67 NW23G32   29.94R WCI  22
WEST BEND      CLOUDY    32  25  74 NW16G24   29.95R WCI  21
JUNEAU         CLOUDY    32  26  76 NW14G23   29.98R WCI  22
$$

LSZ147-162-292100-
LAKE SUPERIOR

STATION/POSITION TIME  TEMP    WIND        PRES    WAVE
                       AIR SEA DIR/SP/G            HT/PER
                 (UTC) (F)     (DEG/KT/KT) (MB)    (FT/S)
DEVILS ISLAND    2000   23     330/ 25/ 28 1023.3R
PORT WING        2000   25     300/ 20/ 25 1023.0
SAXON HARBOR     1920   27     320/ 24     1020.3R
$$

LMZ867-665-643>646-292100-
LAKE MICHIGAN

STATION/POSITION TIME  TEMP    WIND        PRES    WAVE
                       AIR SEA DIR/SP/G            HT/PER
                 (UTC) (F)     (DEG/KT/KT) (MB)    (FT/S)
NORTHPORT PIER   1902   31     320/ 19/ 23 1011.9S
SISTER BAY       1813   32     340/ 23/ 26   N/A
KEWAUNEE LAKESHO 1800   33     340/ 12/ 21 1011.4R
SHEBOYGAN LAKESH 2000   34     330/ 17/ 19 1014.8R
PORT WASHINGTON  1900   34     330/ 11/ 15 1014.6
MILWAUKEE LAKESH 1800   33     330/ 14/ 19   N/A
KENOSHA   LAKESH 2000   34     320/ 15/ 21 1014.6R
$$

TC  - TEMPERATURE IN CELSIUS
VSB - VISIBILITY IN STATUTE MILES
WCI - WIND CHILL INDEX
HX  - HEAT INDEX




USA.gov is the U.S. government's official web portal to all federal, state and local government web resources and services.